Location: Cheyres
(46.8153°N, 6.7877°E)
Time: 14:53:12
(UTC+00:00)

AO-109 - Visible Passes

Search period start: 02 July 2022 00:00
Search period end: 12 July 2022 00:00
Orbit: 476 x 502 km, 60.7° (Epoch: 01 July)

Date Brightness Start Highest point End Pass type
(mag) Time Alt. Az. Time Alt. Az. Time Alt. Az.
02 Jul ? 02:14:02 10° SE 02:15:40 13° ESE 02:17:20 10° E visible
03 Jul ? 01:50:15 10° SE 01:51:19 11° ESE 01:52:22 10° E visible
04 Jul ? 03:00:03 10° SW 03:03:46 82° SE 03:07:32 10° NE visible
05 Jul ? 02:36:08 13° SW 02:39:19 73° SE 02:43:05 10° NE visible
06 Jul ? 02:12:26 20° SSW 02:14:53 64° SE 02:18:37 10° NE visible
07 Jul ? 01:48:41 27° SSW 01:50:26 56° SE 01:54:08 10° NE visible
08 Jul ? 01:24:53 35° S 01:25:59 49° SE 01:29:38 10° NE visible
08 Jul ? 03:00:29 10° W 03:03:40 26° NNW 03:06:54 10° NNE visible
09 Jul ? 01:01:01 40° SSE 01:01:32 43° SE 01:05:07 10° NE visible
09 Jul ? 02:35:54 10° W 02:39:09 28° NNW 02:42:28 10° NNE visible
10 Jul ? 00:37:07 38° SE 00:37:07 38° SE 00:40:35 10° ENE visible
10 Jul ? 02:11:31 11° W 02:14:38 30° NW 02:18:01 10° NNE visible
11 Jul ? 00:13:09 32° ESE 00:13:09 32° ESE 00:16:02 10° ENE visible
11 Jul ? 01:47:33 15° W 01:50:07 33° NW 01:53:34 10° NNE visible
11 Jul ? 23:49:08 26° E 23:49:08 26° E 23:51:27 10° ENE visible
